• în România
  • Lista ţărilor
  • Pe 7 zile
  • Temperatura apei
  • Hartă satelitară
  • Meteo pe hartă
  • Widget-uri
  • user-avatar
    Intrare

    Meteo pe oră la Rylovo

    Astăzi, 21 Iunie, Joi

    Timp Temperatura Precipitaţii Vânt Presiune Umiditate
    00:00 +12°C° 0 mm 4 m/s 741 mmHg 68%
    01:00 +12°C° 0 mm 4 m/s 741 mmHg 70%
    02:00 +11°C° 0 mm 3 m/s 741 mmHg 79%
    03:00 +11°C° 0 mm 3 m/s 742 mmHg 77%
    04:00 +12°C° 0 mm 4 m/s 742 mmHg 76%
    05:00 +12°C° 0 mm 4 m/s 742 mmHg 75%
    06:00 +14°C° 0 mm 4 m/s 742 mmHg 69%
    07:00 +15°C° 0 mm 5 m/s 742 mmHg 63%
    08:00 +17°C° 0 mm 5 m/s 742 mmHg 58%
    09:00 +19°C° 0 mm 5 m/s 742 mmHg 56%
    10:00 +19°C° 0 mm 5 m/s 742 mmHg 54%
    11:00 +20°C° 0 mm 5 m/s 742 mmHg 52%
    12:00 +21°C° 0 mm 5 m/s 742 mmHg 53%
    13:00 +21°C° 0 mm 5 m/s 742 mmHg 55%
    14:00 +22°C° 0 mm 5 m/s 742 mmHg 56%
    15:00 +21°C° 0 mm 5 m/s 742 mmHg 59%
    16:00 +21°C° 0 mm 4 m/s 742 mmHg 62%
    17:00 +21°C° 0 mm 3 m/s 742 mmHg 66%
    18:00 +20°C° 0 mm 3 m/s 742 mmHg 72%
    19:00 +19°C° 0 mm 2 m/s 742 mmHg 79%
    20:00 +18°C° 0 mm 1 m/s 742 mmHg 85%
    21:00 +18°C° 0 mm 1 m/s 742 mmHg 88%
    22:00 +16°C° 0 mm 2 m/s 742 mmHg 90%
    23:00 +15°C° 0 mm 2 m/s 742 mmHg 93%

    Mâine, 22 Iunie, Vineri

    Timp Temperatura Precipitaţii Vânt Presiune Umiditate
    00:00 +15°C° 0 mm 2 m/s 742 mmHg 94%
    01:00 +15°C° 0 mm 2 m/s 742 mmHg 95%
    02:00 +15°C° 0 mm 2 m/s 742 mmHg 96%
    03:00 +16°C° 0 mm 3 m/s 742 mmHg 93%
    04:00 +17°C° 0 mm 3 m/s 742 mmHg 89%
    05:00 +17°C° 0 mm 3 m/s 741 mmHg 86%
    06:00 +19°C° 0 mm 4 m/s 741 mmHg 80%
    07:00 +21°C° 0 mm 5 m/s 741 mmHg 73%
    08:00 +23°C° 0 mm 6 m/s 741 mmHg 66%
    09:00 +24°C° 0 mm 6 m/s 740 mmHg 64%
    10:00 +26°C° 0 mm 6 m/s 740 mmHg 62%
    11:00 +27°C° 0 mm 7 m/s 740 mmHg 59%
    12:00 +27°C° 0,4 mm 6 m/s 740 mmHg 64%
    13:00 +27°C° 0,4 mm 6 m/s 740 mmHg 69%
    14:00 +27°C° 0,4 mm 5 m/s 739 mmHg 73%
    15:00 +26°C° 1,2 mm 5 m/s 740 mmHg 79%
    16:00 +23°C° 1,2 mm 5 m/s 740 mmHg 85%
    17:00 +22°C° 1,2 mm 4 m/s 740 mmHg 91%
    18:00 +21°C° 0,5 mm 4 m/s 740 mmHg 92%
    19:00 +20°C° 0,5 mm 3 m/s 741 mmHg 94%
    20:00 +19°C° 0,5 mm 2 m/s 741 mmHg 95%
    21:00 +17°C° 0,1 mm 2 m/s 741 mmHg 95%
    22:00 +16°C° 0,1 mm 2 m/s 742 mmHg 95%
    23:00 +14°C° 0,1 mm 2 m/s 742 mmHg 95%

    Poimâine, 23 Iunie, Sâmbătă

    Timp Temperatura Precipitaţii Vânt Presiune Umiditate
    00:00 +13°C° 0 mm 2 m/s 742 mmHg 95%
    01:00 +13°C° 0 mm 2 m/s 743 mmHg 95%
    02:00 +12°C° 0 mm 1 m/s 743 mmHg 95%
    03:00 +12°C° 0 mm 1 m/s 743 mmHg 94%
    04:00 +13°C° 0 mm 1 m/s 743 mmHg 92%
    05:00 +14°C° 0 mm 1 m/s 744 mmHg 91%
    06:00 +16°C° 0 mm 1 m/s 744 mmHg 82%
    07:00 +18°C° 0 mm 1 m/s 744 mmHg 74%
    08:00 +20°C° 0 mm 1 m/s 744 mmHg 65%
    09:00 +20°C° 0 mm 1 m/s 744 mmHg 67%
    10:00 +20°C° 0 mm 1 m/s 744 mmHg 70%
    11:00 +20°C° 0 mm 1 m/s 744 mmHg 72%
    12:00 +20°C° 0 mm 1 m/s 744 mmHg 69%
    13:00 +20°C° 0 mm 1 m/s 744 mmHg 67%
    14:00 +20°C° 0 mm 2 m/s 744 mmHg 64%
    15:00 +20°C° 0 mm 2 m/s 743 mmHg 67%
    16:00 +19°C° 0 mm 2 m/s 743 mmHg 70%
    17:00 +19°C° 0 mm 2 m/s 743 mmHg 73%
    18:00 +18°C° 0,5 mm 2 m/s 742 mmHg 79%
    19:00 +17°C° 0,5 mm 2 m/s 742 mmHg 85%
    20:00 +16°C° 0,5 mm 2 m/s 742 mmHg 90%
    21:00 +16°C° 0,2 mm 2 m/s 742 mmHg 92%
    22:00 +15°C° 0,2 mm 2 m/s 741 mmHg 93%
    23:00 +14°C° 0,2 mm 3 m/s 741 mmHg 94%

    24 Iunie, Duminică

    Timp Temperatura Precipitaţii Vânt Presiune Umiditate
    00:00 +16°C° 0,4 mm 3 m/s 741 mmHg 95%
    01:00 +16°C° 0,4 mm 3 m/s 740 mmHg 96%
    02:00 +17°C° 0,4 mm 3 m/s 740 mmHg 96%
    03:00 +18°C° 0,2 mm 4 m/s 739 mmHg 95%
    04:00 +19°C° 0,2 mm 4 m/s 739 mmHg 94%
    05:00 +20°C° 0,2 mm 5 m/s 739 mmHg 93%
    06:00 +21°C° 0 mm 5 m/s 739 mmHg 86%
    07:00 +22°C° 0 mm 6 m/s 739 mmHg 79%
    08:00 +24°C° 0 mm 6 m/s 738 mmHg 72%
    09:00 +24°C° 0,5 mm 6 m/s 739 mmHg 74%
    10:00 +24°C° 0,5 mm 6 m/s 739 mmHg 76%
    11:00 +24°C° 0,5 mm 6 m/s 739 mmHg 77%
    12:00 +24°C° 0,9 mm 6 m/s 739 mmHg 80%
    13:00 +23°C° 0,9 mm 5 m/s 739 mmHg 84%
    14:00 +22°C° 0,9 mm 5 m/s 740 mmHg 87%
    15:00 +21°C° 0,4 mm 5 m/s 740 mmHg 83%
    16:00 +20°C° 0,4 mm 6 m/s 741 mmHg 80%
    17:00 +20°C° 0,4 mm 6 m/s 741 mmHg 76%
    18:00 +17°C° 0 mm 5 m/s 742 mmHg 77%
    19:00 +15°C° 0 mm 5 m/s 742 mmHg 77%
    20:00 +14°C° 0 mm 4 m/s 743 mmHg 78%
    21:00 +13°C° 0 mm 4 m/s 744 mmHg 80%
    22:00 +12°C° 0 mm 4 m/s 744 mmHg 82%
    23:00 +11°C° 0 mm 4 m/s 745 mmHg 84%

    25 Iunie, Luni

    Timp Temperatura Precipitaţii Vânt Presiune Umiditate
    00:00 +10°C° 0 mm 4 m/s 746 mmHg 86%
    01:00 +10°C° 0 mm 4 m/s 746 mmHg 88%
    02:00 +9°C° 0 mm 3 m/s 747 mmHg 91%
    03:00 +10°C° 0 mm 3 m/s 747 mmHg 89%
    04:00 +10°C° 0 mm 3 m/s 748 mmHg 87%
    05:00 +11°C° 0 mm 3 m/s 748 mmHg 85%
    06:00 +12°C° 0 mm 3 m/s 749 mmHg 78%
    07:00 +14°C° 0 mm 3 m/s 749 mmHg 72%
    08:00 +17°C° 0 mm 3 m/s 749 mmHg 65%
    09:00 +18°C° 0 mm 3 m/s 749 mmHg 61%
    10:00 +19°C° 0 mm 3 m/s 750 mmHg 57%
    11:00 +20°C° 0 mm 3 m/s 750 mmHg 54%
    12:00 +21°C° 0 mm 3 m/s 750 mmHg 52%
    13:00 +23°C° 0 mm 2 m/s 750 mmHg 50%
    14:00 +24°C° 0 mm 2 m/s 750 mmHg 48%
    15:00 +24°C° 0 mm 2 m/s 750 mmHg 51%
    16:00 +23°C° 0 mm 2 m/s 750 mmHg 55%
    17:00 +23°C° 0 mm 2 m/s 750 mmHg 58%
    18:00 +21°C° 0,1 mm 2 m/s 750 mmHg 65%
    19:00 +20°C° 0,1 mm 1 m/s 750 mmHg 72%
    20:00 +18°C° 0,1 mm 1 m/s 750 mmHg 80%
    21:00 +16°C° 0 mm 1 m/s 751 mmHg 82%
    22:00 +15°C° 0 mm 1 m/s 751 mmHg 83%
    23:00 +14°C° 0 mm 1 m/s 751 mmHg 85%

    26 Iunie, Marţi

    Timp Temperatura Precipitaţii Vânt Presiune Umiditate
    00:00 +14°C° 0 mm 1 m/s 751 mmHg 87%
    01:00 +13°C° 0 mm 1 m/s 751 mmHg 88%
    02:00 +13°C° 0 mm 1 m/s 752 mmHg 89%
    03:00 +14°C° 0 mm 1 m/s 752 mmHg 88%
    04:00 +14°C° 0 mm 1 m/s 752 mmHg 87%
    05:00 +15°C° 0 mm 1 m/s 752 mmHg 86%
    06:00 +18°C° 0 mm 1 m/s 753 mmHg 80%
    07:00 +20°C° 0 mm 1 m/s 753 mmHg 73%
    08:00 +21°C° 0 mm 2 m/s 753 mmHg 66%
    09:00 +23°C° 0,4 mm 2 m/s 753 mmHg 64%
    10:00 +24°C° 0,4 mm 2 m/s 753 mmHg 61%
    11:00 +24°C° 0,4 mm 2 m/s 753 mmHg 59%
    12:00 +25°C° 0,2 mm 2 m/s 753 mmHg 56%
    13:00 +25°C° 0,2 mm 2 m/s 753 mmHg 54%
    14:00 +26°C° 0,2 mm 1 m/s 753 mmHg 51%
    15:00 +26°C° 0,1 mm 1 m/s 753 mmHg 54%
    16:00 +25°C° 0,1 mm 1 m/s 753 mmHg 56%
    17:00 +25°C° 0,1 mm 1 m/s 753 mmHg 59%
    18:00 +24°C° 0 mm 1 m/s 753 mmHg 65%
    19:00 +22°C° 0 mm 1 m/s 753 mmHg 70%
    20:00 +20°C° 0 mm 1 m/s 753 mmHg 76%
    21:00 +19°C° 0 mm 1 m/s 753 mmHg 78%
    22:00 +18°C° 0 mm 1 m/s 754 mmHg 80%
    23:00 +16°C° 0 mm 1 m/s 754 mmHg 82%
    Arată mai mult